Location: Spring Creek
(38.2870°N, 100.2160°W)
Time: 20:21:26
(UTC+00:00)

IDEFIX/ARIANE 42P - Visible Passes

Search period start: 22 September 2021 00:00
Search period end: 02 October 2021 00:00
Orbit: 786 x 802 km, 98.4° (Epoch: 22 September)

Date Brightness Start Highest point End Pass type
(mag) Time Alt. Az. Time Alt. Az. Time Alt. Az.
22 Sep 4.9 08:47:56 10° NNE 08:49:33 20° NNE 08:49:33 20° NNE visible
22 Sep 4.4 10:28:26 10° NNW 10:30:21 17° NW 10:30:21 17° NW visible
23 Sep 5.4 08:20:08 10° NE 08:20:42 12° NE 08:20:42 12° NE visible
23 Sep 4.2 09:59:18 10° N 10:01:30 23° NNW 10:01:30 23° NNW visible
24 Sep 4.4 09:30:36 10° N 09:32:39 24° N 09:32:39 24° N visible
25 Sep 4.8 09:02:12 10° NNE 09:03:48 20° NNE 09:03:48 20° NNE visible
25 Sep 4.6 10:43:32 10° NNW 10:44:36 13° NW 10:44:36 13° NW visible
26 Sep 5.3 08:34:10 10° NNE 08:34:57 14° NE 08:34:57 14° NE visible
26 Sep 4.4 10:14:01 10° NNW 10:15:45 18° NNW 10:15:45 18° NNW visible
27 Sep 4.5 09:45:08 10° N 09:46:54 21° N 09:46:54 21° N visible
28 Sep 4.8 09:16:34 10° NNE 09:18:03 19° NNE 09:18:03 19° NNE visible
29 Sep 5.2 08:48:20 10° NNE 08:49:12 15° NNE 08:49:12 15° NNE visible
29 Sep 4.6 10:28:53 10° NNW 10:30:00 14° NNW 10:30:00 14° NNW visible
30 Sep 4.6 09:59:45 10° N 10:01:09 17° NNW 10:01:09 17° NNW visible
01 Oct 4.8 09:31:02 10° N 09:32:17 18° N 09:32:17 18° N visible
